Simultaneous Nadir Overpasses (SNOs) Predictions

Prediction of SNOs between GOES-16 and NOAA-19 Satellite Orbit:

Table of predicted SNOs for the next 14.0 days since TLE Epoch: 10/11/2019
Index Date Time (GOES-16) GOES-16 Lat,Lon NOAA-19 Lat,Lon Distance(km) Time Diff (sec)
1 10/13/2019 22:21:38 -0.01, -75.20 -0.43, -76.93 197.86 80
2 10/14/2019 22:12:40 -0.01, -75.20 0.25, -74.09 127.35 80
3 10/15/2019 22:01:01 -0.01, -75.21 0.93, -71.25 452.59 80
4 10/17/2019 10:33:37 0.01, -75.22 0.87, -79.05 436.02 80
5 10/18/2019 10:21:59 0.00, -75.23 0.20, -76.21 110.89 80
6 10/19/2019 10:07:40 0.00, -75.24 -0.41, -73.35 214.36 80
7 10/21/2019 22:28:52 0.00, -75.24 -0.73, -78.37 358.05 80
8 10/22/2019 22:17:14 0.00, -75.25 -0.04, -75.54 32.47 80
9 10/23/2019 22:08:14 0.00, -75.26 0.59, -72.68 293.51 80




NCC Satellite Simultaneous Nadir Overpasses (SNOs) Prediction Service
